Regional Weather Roundup
Issued by NWS Bismarck, ND

Home | Current Version | Previous Version | Text Only | Print | Product List | Glossary On
Versions: 1 2 3 4 5 6 7 8 9 10 11 12 13 14 15 16 17 18 19 20 21 22 23 24 25 26 27 28 29 30 31 32 33 34 35 36 37 38 39 40 41 42 43 44 45 46 47 48 49 50
000
ASUS43 KBIS 280910
RWRBIS

NWR BROADCAST TEXT
NATIONAL WEATHER SERVICE BISMARCK ND
400 AM CDT THU MAY 28 2015

NOTE: "FAIR" INDICATES FEW OR NO CLOUDS BELOW 12,000 FEET WITH NO
SIGNIFICANT WEATHER AND/OR OBSTRUCTIONS TO VISIBILITY.


CITY           SKY/WX    TMP DP  RH WIND       PRES   REMARKS
WILLISTON      MOCLDY    57  54  89 SE3       29.87F
MINOT          LGT RAIN  58  56  93 E7        29.89F
MINOT AFB      RAIN      57  57 100 E8        29.89S FOG
BISMARCK       MOCLDY    58  56  93 S7        29.90S
DICKINSON      FOG       48  47  96 SW3       29.88S VSB 1/4
GARRISON         N/A     60  57  89 E5        29.88F
HETTINGER ARPT FOG       48  46  93 CALM      29.91S VSB 3/4
JAMESTOWN      LGT RAIN  60  56  86 SE7       29.92F
BEACH          FAIR      46  46 100 S3        29.91S FOG
CARRINGTON     LGT RAIN  59  59 100 SE10      29.94F
CROSBY         FAIR      55  55 100 E7        29.89F
HARVEY         CLOUDY    57  57 100 E7        29.92F
HAZEN          CLOUDY    54  54 100 CALM      29.89F FOG
LINTON         PTSUNNY   59  59 100 SE7       29.90S
MANDAN         PTSUNNY   55  55 100 SE8       29.91R
OAKES            N/A     59  59 100 N6        29.94F
STANLEY        CLOUDY    57  57 100 SE8       29.89F
WATFORD CITY   PTSUNNY   54  54 100 SE6       29.87S
$$

CITY           SKY/WX    TMP DP  RH WIND       PRES   REMARKS
GRAND FORKS    CLOUDY    59  53  80 W16       29.95S
GRAND FORKS AF LGT RAIN  57  54  87 CALM      29.96R
DEVILS LAKE    CLOUDY    57  50  77 E9        29.94S
FARGO          LGT RAIN  65  56  72 SW5       29.96R
CANDO          CLOUDY    55  52  88 NE6       29.95F
CAVALIER       FAIR      57  45  62 N3        29.95F
GRAFTON        PTSUNNY   55  50  82 N5        29.96R
LANGDON        PTSUNNY   54  50  87 E8        29.97F
ROLLA          LGT RAIN  55  55 100 E9        29.97F
WALHALLA       FAIR      55  54  94 MISG      29.96F
$$

CITY           SKY/WX    TMP DP  RH WIND       PRES   REMARKS
ABERDEEN       CLOUDY    62  58  86 E6        29.93F
MOBRIDGE       CLEAR     60  59  96 SE8       29.87S
BUFFALO          N/A     54  52  93 W5        29.86R
RAPID CITY     CLOUDY    55  52  89 S3        29.92F
GLASGOW        CLEAR     53  51  93 E3        29.86S
SIDNEY         MOCLDY    52  48  87 CALM      29.88S
WOLF POINT     CLEAR     52  49  89 CALM      29.87S
GLENDIVE       PTCLDY    52  48  87 SW5       29.90R
MILES CITY     FOG       52  52 100 S3        29.92R VSB 1
BAKER          MOCLDY    50  48  93 CALM      29.92S FOG
$$

CITY           SKY/WX    TMP DP  RH WIND       PRES   REMARKS
BILLINGS       PTCLDY    52  46  80 SW12      29.98S
GREAT FALLS    CLOUDY    51  48  89 SW8       29.99S
REGINA         CLOUDY    55  48  76 E5        29.92F
ESTEVAN        LGT RAIN  57  55  94 E9        29.89F
$$



USA.gov is the U.S. government's official web portal to all federal, state and local government web resources and services.